UAE5K LICC-LIMJ

Flight info

Callsign UAE5K
Flight time 1h 16m
Altitude 40000
Route BUDIN DCT TAGEL DCT ELB DCT BETEN M729 IDONA
Aircraft A359/H-SDE2E3GHIJ3J4J5LM1ORWXY/LB1D1

Departure

Time 2026-04-26 16:06
Airport Catania-Fontanarossa Airport (LICC)

Arrival

Time 2026-04-26 17:23
Airport Genoa Cristoforo Colombo Airport (LIMJ)
Time Latitude Longitude Altitude Speed Heading
2026-04-26 15:30 37.46832 15.05695 53 ft 0 kts 354°
2026-04-26 16:00 37.46831 15.05695 53 ft 2 kts 354°
2026-04-26 16:00 37.46814 15.05698 30 ft 2 kts 354°
2026-04-26 16:01 37.46798 15.05700 32 ft 2 kts 354°
2026-04-26 16:01 37.46782 15.05702 49 ft 2 kts 348°
2026-04-26 16:01 37.46775 15.05717 47 ft 2 kts 279°
2026-04-26 16:01 37.46774 15.05728 44 ft 0 kts 262°
2026-04-26 16:03 37.46774 15.05725 44 ft 2 kts 262°
2026-04-26 16:03 37.46768 15.05682 44 ft 9 kts 260°
2026-04-26 16:03 37.46752 15.05545 52 ft 20 kts 264°
2026-04-26 16:04 37.46733 15.05362 50 ft 22 kts 255°
2026-04-26 16:04 37.46663 15.05250 50 ft 16 kts 220°
2026-04-26 16:04 37.46649 15.05234 52 ft 0 kts 221°
2026-04-26 16:05 37.46613 15.05208 52 ft 11 kts 196°
2026-04-26 16:05 37.46569 15.05248 48 ft 11 kts 109°
2026-04-26 16:05 37.46581 15.05456 50 ft 58 kts 84°
2026-04-26 16:06 37.46662 15.06423 50 ft 160 kts 83°
2026-04-26 16:06 37.46812 15.08102 304 ft 224 kts 84°
2026-04-26 16:06 37.46998 15.10275 869 ft 270 kts 83°
2026-04-26 16:06 37.47414 15.12573 1840 ft 268 kts 65°
2026-04-26 16:07 37.48635 15.14373 2503 ft 278 kts 33°
2026-04-26 16:07 37.50470 15.15101 3198 ft 281 kts
2026-04-26 16:07 37.52352 15.14539 3967 ft 280 kts 333°
2026-04-26 16:07 37.54032 15.13357 4731 ft 280 kts 329°
2026-04-26 16:08 37.55764 15.12181 5441 ft 284 kts 334°
2026-04-26 16:08 37.56978 15.11553 5906 ft 286 kts 340°
2026-04-26 16:08 37.59584 15.10739 6818 ft 290 kts 351°
2026-04-26 16:08 37.61588 15.10462 7460 ft 294 kts 356°
2026-04-26 16:09 37.63643 15.10354 8120 ft 297 kts 359°
2026-04-26 16:09 37.65727 15.10328 8780 ft 301 kts 360°
2026-04-26 16:09 37.67842 15.10325 9461 ft 304 kts 360°
2026-04-26 16:09 37.69952 15.10315 10125 ft 307 kts 360°
2026-04-26 16:10 37.72105 15.10287 10725 ft 311 kts 359°
2026-04-26 16:10 37.74293 15.10241 11285 ft 315 kts 359°
2026-04-26 16:10 37.76472 15.10183 11872 ft 319 kts 358°
2026-04-26 16:10 37.78709 15.10117 12473 ft 323 kts 358°
2026-04-26 16:11 37.80978 15.10045 13077 ft 326 kts 358°
2026-04-26 16:11 37.83267 15.09971 13663 ft 330 kts 358°
2026-04-26 16:11 37.85556 15.09898 14197 ft 334 kts 358°
2026-04-26 16:11 37.87901 15.09826 14743 ft 337 kts 358°
2026-04-26 16:12 37.90270 15.09754 15310 ft 339 kts 358°
2026-04-26 16:12 37.92643 15.09682 15883 ft 341 kts 358°
2026-04-26 16:12 37.97406 15.09536 17027 ft 346 kts 358°
2026-04-26 16:13 37.99828 15.09462 17607 ft 348 kts 358°
2026-04-26 16:13 38.02268 15.09388 18188 ft 350 kts 358°
2026-04-26 16:13 38.04714 15.09315 18719 ft 353 kts 358°
2026-04-26 16:13 38.06349 15.09266 19030 ft 354 kts 358°
2026-04-26 16:14 38.09629 15.09168 19681 ft 357 kts 358°
2026-04-26 16:14 38.12125 15.09093 20179 ft 359 kts 358°
2026-04-26 16:14 38.16317 15.08964 20984 ft 363 kts 358°
2026-04-26 16:15 38.18857 15.08886 21459 ft 365 kts 358°
2026-04-26 16:15 38.21417 15.08807 21935 ft 367 kts 358°
2026-04-26 16:15 38.23982 15.08728 22387 ft 370 kts 358°
2026-04-26 16:16 38.29138 15.08570 23311 ft 375 kts 358°
2026-04-26 16:16 38.31769 15.08490 23759 ft 377 kts 358°
2026-04-26 16:16 38.34382 15.08410 24131 ft 380 kts 358°
2026-04-26 16:16 38.37043 15.08328 24519 ft 382 kts 358°
2026-04-26 16:17 38.39722 15.08246 24920 ft 384 kts 358°
2026-04-26 16:17 38.42384 15.08157 25306 ft 387 kts 357°
2026-04-26 16:17 38.45080 15.07790 25710 ft 388 kts 348°
2026-04-26 16:17 38.47697 15.06909 26119 ft 389 kts 339°
2026-04-26 16:18 38.50135 15.05486 26541 ft 390 kts 329°
2026-04-26 16:18 38.54672 15.01585 27439 ft 394 kts 323°
2026-04-26 16:19 38.59092 14.97351 28354 ft 399 kts 322°
2026-04-26 16:19 38.61288 14.95229 28819 ft 402 kts 322°
2026-04-26 16:19 38.65790 14.90917 29907 ft 403 kts 322°
2026-04-26 16:20 38.68042 14.88778 30526 ft 401 kts 322°
2026-04-26 16:20 38.72493 14.84563 31646 ft 397 kts 322°
2026-04-26 16:20 38.74721 14.82453 32206 ft 396 kts 322°
2026-04-26 16:21 38.76927 14.80361 32721 ft 395 kts 322°
2026-04-26 16:21 38.79138 14.78263 33243 ft 393 kts 322°
2026-04-26 16:21 38.81324 14.76186 33767 ft 392 kts 322°
2026-04-26 16:21 38.83519 14.74097 34103 ft 393 kts 322°
2026-04-26 16:22 38.87989 14.69837 34145 ft 411 kts 322°
2026-04-26 16:22 38.90292 14.67639 34143 ft 422 kts 322°
2026-04-26 16:22 38.92684 14.65354 34143 ft 433 kts 322°
2026-04-26 16:23 38.95130 14.63018 34146 ft 444 kts 322°
2026-04-26 16:23 38.97645 14.60613 34141 ft 455 kts 322°
2026-04-26 16:23 39.02808 14.55673 34141 ft 475 kts 322°
2026-04-26 16:24 39.08194 14.50510 34149 ft 485 kts 322°
2026-04-26 16:24 39.13669 14.45250 34149 ft 499 kts 322°
2026-04-26 16:25 39.19244 14.39883 34150 ft 500 kts 322°
2026-04-26 16:25 39.24828 14.34497 34147 ft 500 kts 322°
2026-04-26 16:26 39.30412 14.29098 34149 ft 501 kts 322°
2026-04-26 16:26 39.35957 14.23726 34150 ft 501 kts 322°
2026-04-26 16:27 39.41531 14.18314 34147 ft 501 kts 322°
2026-04-26 16:27 39.47114 14.12884 34147 ft 501 kts 322°
2026-04-26 16:28 39.52656 14.07482 34147 ft 501 kts 322°
2026-04-26 16:28 39.58233 14.02034 34144 ft 501 kts 322°
2026-04-26 16:29 39.63785 13.96599 34142 ft 501 kts 322°
2026-04-26 16:29 39.69351 13.91139 34150 ft 501 kts 322°
2026-04-26 16:30 39.74897 13.85688 34147 ft 501 kts 322°
2026-04-26 16:30 39.80467 13.80202 34146 ft 501 kts 322°
2026-04-26 16:31 39.86036 13.74705 34151 ft 501 kts 322°
2026-04-26 16:31 39.91574 13.69228 34145 ft 502 kts 322°
2026-04-26 16:32 39.96202 13.64641 34148 ft 502 kts 322°
2026-04-26 16:32 40.02706 13.58182 34146 ft 502 kts 322°
2026-04-26 16:33 40.08239 13.52675 34146 ft 503 kts 322°
2026-04-26 16:33 40.13808 13.47120 34135 ft 502 kts 322°
2026-04-26 16:34 40.19310 13.41620 34145 ft 498 kts 322°
2026-04-26 16:34 40.24808 13.36113 34144 ft 497 kts 322°
2026-04-26 16:35 40.30307 13.30593 34143 ft 496 kts 322°
2026-04-26 16:35 40.35584 13.24819 34142 ft 496 kts 318°
2026-04-26 16:36 40.40738 13.18766 34143 ft 496 kts 318°
2026-04-26 16:36 40.45878 13.12769 34143 ft 496 kts 319°
2026-04-26 16:37 40.51079 13.06778 34142 ft 496 kts 319°
2026-04-26 16:37 40.56246 13.00847 34139 ft 496 kts 319°
2026-04-26 16:38 40.61447 12.94867 34142 ft 495 kts 319°
2026-04-26 16:38 40.66637 12.88882 34145 ft 495 kts 319°
2026-04-26 16:39 40.71806 12.82907 34144 ft 495 kts 319°
2026-04-26 16:39 40.76951 12.76945 34141 ft 495 kts 319°
2026-04-26 16:40 40.82139 12.70922 34143 ft 495 kts 318°
2026-04-26 16:40 40.87280 12.64940 34140 ft 494 kts 318°
2026-04-26 16:41 40.92440 12.58923 34142 ft 494 kts 318°
2026-04-26 16:41 40.97601 12.52892 34139 ft 494 kts 318°
2026-04-26 16:42 41.02729 12.46886 34138 ft 494 kts 318°
2026-04-26 16:42 41.07878 12.40843 34139 ft 494 kts 318°
2026-04-26 16:43 41.13029 12.34784 34136 ft 493 kts 318°
2026-04-26 16:43 41.18144 12.28754 34139 ft 493 kts 318°
2026-04-26 16:44 41.23248 12.22725 34137 ft 492 kts 318°
2026-04-26 16:44 41.28388 12.16640 34141 ft 492 kts 317°
2026-04-26 16:45 41.33478 12.10600 34141 ft 492 kts 317°
2026-04-26 16:45 41.38595 12.04515 34138 ft 492 kts 317°
2026-04-26 16:46 41.43680 11.98455 34138 ft 492 kts 317°
2026-04-26 16:46 41.48783 11.92359 34138 ft 491 kts 317°
2026-04-26 16:47 41.53853 11.86291 34139 ft 491 kts 317°
2026-04-26 16:47 41.58954 11.80171 34136 ft 491 kts 317°
2026-04-26 16:48 41.64011 11.74092 34134 ft 491 kts 317°
2026-04-26 16:48 41.69098 11.67962 34139 ft 491 kts 317°
2026-04-26 16:49 41.74180 11.61824 34141 ft 491 kts 317°
2026-04-26 16:49 41.79221 11.55723 34139 ft 490 kts 317°
2026-04-26 16:50 41.84300 11.49562 34137 ft 490 kts 317°
2026-04-26 16:50 41.89327 11.43451 34140 ft 490 kts 316°
2026-04-26 16:51 41.94402 11.37267 34136 ft 490 kts 316°
2026-04-26 16:51 41.99431 11.31125 34137 ft 490 kts 316°
2026-04-26 16:52 42.02772 11.27037 34135 ft 490 kts 316°
2026-04-26 16:52 42.09506 11.18780 34137 ft 490 kts 316°
2026-04-26 16:53 42.14556 11.12570 34136 ft 490 kts 316°
2026-04-26 16:53 42.19563 11.06400 34135 ft 490 kts 316°
2026-04-26 16:54 42.24604 11.00176 34140 ft 490 kts 316°
2026-04-26 16:54 42.29602 10.93989 34131 ft 489 kts 316°
2026-04-26 16:55 42.34622 10.87760 34132 ft 489 kts 316°
2026-04-26 16:55 42.39605 10.81563 34135 ft 489 kts 316°
2026-04-26 16:56 42.47121 10.72192 34138 ft 488 kts 316°
2026-04-26 16:57 42.52126 10.65934 34143 ft 488 kts 316°
2026-04-26 16:57 42.59668 10.56474 34136 ft 498 kts 317°
2026-04-26 16:58 42.63044 10.52232 34134 ft 499 kts 317°
2026-04-26 16:59 42.72420 10.40531 34132 ft 499 kts 322°
2026-04-26 17:00 42.83369 10.31716 34140 ft 499 kts 330°
2026-04-26 17:00 42.89451 10.27197 33849 ft 489 kts 330°
2026-04-26 17:00 42.92431 10.24972 32840 ft 490 kts 330°
2026-04-26 17:01 42.95457 10.22697 31554 ft 497 kts 330°
2026-04-26 17:01 42.98462 10.20426 30356 ft 501 kts 330°
2026-04-26 17:01 43.01531 10.18099 29324 ft 500 kts 330°
2026-04-26 17:01 43.04551 10.15804 28615 ft 492 kts 330°
2026-04-26 17:02 43.07536 10.13535 27896 ft 486 kts 329°
2026-04-26 17:02 43.10476 10.11296 27175 ft 481 kts 329°
2026-04-26 17:02 43.13392 10.09074 26475 ft 476 kts 329°
2026-04-26 17:02 43.16239 10.06901 25798 ft 472 kts 329°
2026-04-26 17:03 43.19091 10.04723 25129 ft 467 kts 329°
2026-04-26 17:03 43.21920 10.02559 24440 ft 463 kts 329°
2026-04-26 17:03 43.24734 10.00405 23771 ft 459 kts 329°
2026-04-26 17:03 43.27517 9.98272 22967 ft 455 kts 329°
2026-04-26 17:04 43.30268 9.96160 22163 ft 451 kts 329°
2026-04-26 17:04 43.33003 9.94059 21404 ft 448 kts 328°
2026-04-26 17:04 43.35687 9.91995 20701 ft 444 kts 328°
2026-04-26 17:04 43.38370 9.89930 20287 ft 441 kts 328°
2026-04-26 17:05 43.41057 9.87859 20152 ft 442 kts 328°
2026-04-26 17:05 43.43752 9.85780 20141 ft 442 kts 328°
2026-04-26 17:05 43.46433 9.83710 20136 ft 441 kts 328°
2026-04-26 17:05 43.49074 9.81669 20006 ft 439 kts 328°
2026-04-26 17:06 43.51744 9.79604 20009 ft 440 kts 328°
2026-04-26 17:06 43.54411 9.77539 20037 ft 440 kts 328°
2026-04-26 17:06 43.57091 9.75459 20076 ft 439 kts 328°
2026-04-26 17:06 43.59754 9.73391 20027 ft 438 kts 328°
2026-04-26 17:07 43.62375 9.71356 19630 ft 436 kts 328°
2026-04-26 17:07 43.65001 9.69316 18923 ft 432 kts 328°
2026-04-26 17:07 43.67625 9.67276 18153 ft 429 kts 328°
2026-04-26 17:07 43.70221 9.65255 17490 ft 424 kts 328°
2026-04-26 17:08 43.72753 9.63280 16899 ft 420 kts 328°
2026-04-26 17:08 43.75297 9.61293 16300 ft 417 kts 328°
2026-04-26 17:08 43.77812 9.59327 15713 ft 413 kts 329°
2026-04-26 17:08 43.80317 9.57371 15291 ft 411 kts 329°
2026-04-26 17:09 43.82778 9.55445 14920 ft 405 kts 329°
2026-04-26 17:09 43.84400 9.54173 14403 ft 404 kts 329°
2026-04-26 17:09 43.87666 9.51610 13374 ft 400 kts 329°
2026-04-26 17:09 43.90076 9.49718 12761 ft 395 kts 329°
2026-04-26 17:10 43.92438 9.47861 12187 ft 393 kts 329°
2026-04-26 17:10 43.94787 9.46014 11715 ft 388 kts 329°
2026-04-26 17:10 43.97137 9.44151 11597 ft 388 kts 328°
2026-04-26 17:10 43.99211 9.41766 11464 ft 386 kts 310°
2026-04-26 17:11 44.00786 9.38803 11316 ft 384 kts 303°
2026-04-26 17:11 44.02271 9.35711 11051 ft 376 kts 303°
2026-04-26 17:11 44.03835 9.32975 10265 ft 351 kts 317°
2026-04-26 17:11 44.05705 9.30875 9535 ft 350 kts 322°
2026-04-26 17:12 44.10147 9.28612 7742 ft 347 kts
2026-04-26 17:12 44.12459 9.29562 7208 ft 350 kts 28°
2026-04-26 17:13 44.15287 9.34814 7000 ft 349 kts 72°
2026-04-26 17:13 44.16373 9.37819 6998 ft 349 kts 51°
2026-04-26 17:13 44.20428 9.40863 6620 ft 318 kts
2026-04-26 17:14 44.22566 9.40321 6156 ft 319 kts 334°
2026-04-26 17:14 44.24981 9.35954 6012 ft 266 kts 279°
2026-04-26 17:14 44.25252 9.33440 6000 ft 261 kts 276°
2026-04-26 17:15 44.26390 9.28644 5913 ft 259 kts 300°
2026-04-26 17:15 44.27428 9.26629 5378 ft 254 kts 309°
2026-04-26 17:15 44.28651 9.24811 5057 ft 261 kts 314°
2026-04-26 17:16 44.29984 9.23219 4981 ft 240 kts 322°
2026-04-26 17:16 44.31250 9.21978 4866 ft 208 kts 324°
2026-04-26 17:16 44.32414 9.20881 4388 ft 198 kts 324°
2026-04-26 17:16 44.33542 9.19803 3743 ft 195 kts 322°
2026-04-26 17:17 44.34414 9.18367 3074 ft 194 kts 294°
2026-04-26 17:17 44.34846 9.16604 2626 ft 192 kts 284°
2026-04-26 17:17 44.35188 9.14793 2496 ft 192 kts 283°
2026-04-26 17:17 44.35521 9.13039 2492 ft 185 kts 283°
2026-04-26 17:18 44.35853 9.11314 2504 ft 183 kts 283°
2026-04-26 17:18 44.36188 9.09598 2220 ft 185 kts 283°
2026-04-26 17:18 44.36522 9.07900 2017 ft 178 kts 283°
2026-04-26 17:18 44.36852 9.06231 1991 ft 177 kts 283°
2026-04-26 17:19 44.37435 9.03295 2008 ft 146 kts 283°
2026-04-26 17:19 44.37706 9.01921 2000 ft 146 kts 283°
2026-04-26 17:19 44.37977 9.00575 1969 ft 141 kts 284°
2026-04-26 17:20 44.38241 8.99298 1925 ft 136 kts 284°
2026-04-26 17:20 44.38419 8.98438 1844 ft 136 kts 284°
2026-04-26 17:20 44.38744 8.96751 1673 ft 136 kts 281°
2026-04-26 17:20 44.38962 8.95468 1559 ft 135 kts 282°
2026-04-26 17:21 44.39210 8.94220 1441 ft 135 kts 285°
2026-04-26 17:21 44.39492 8.92960 1331 ft 135 kts 285°
2026-04-26 17:21 44.39749 8.91699 1226 ft 134 kts 282°
2026-04-26 17:21 44.39979 8.90428 1010 ft 134 kts 282°
2026-04-26 17:22 44.40205 8.89191 787 ft 132 kts 282°
2026-04-26 17:22 44.40449 8.87953 535 ft 131 kts 283°
2026-04-26 17:22 44.40708 8.86743 316 ft 129 kts 285°
2026-04-26 17:22 44.40932 8.85528 94 ft 128 kts 281°
2026-04-26 17:23 44.41150 8.84387 27 ft 109 kts 284°
2026-04-26 17:23 44.41282 8.83723 29 ft 29 kts 285°
2026-04-26 17:23 44.41316 8.83548 30 ft 19 kts 285°
2026-04-26 17:23 44.41356 8.83348 26 ft 24 kts 285°
2026-04-26 17:24 44.41443 8.83130 30 ft 28 kts 316°
2026-04-26 17:24 44.41520 8.83108 28 ft 0 kts 39°
2026-04-26 17:25 44.41536 8.83136 28 ft 6 kts 60°
2026-04-26 17:25 44.41540 8.83207 28 ft 9 kts 101°
2026-04-26 17:25 44.41520 8.83329 26 ft 16 kts 103°
2026-04-26 17:25 44.41485 8.83512 29 ft 22 kts 105°
2026-04-26 17:26 44.41438 8.83742 29 ft 27 kts 105°
2026-04-26 17:26 44.41383 8.84021 31 ft 32 kts 105°
2026-04-26 17:26 44.41324 8.84313 31 ft 16 kts 105°
2026-04-26 17:26 44.41325 8.84402 29 ft 8 kts 69°
2026-04-26 17:27 44.41355 8.84472 32 ft 9 kts 51°
2026-04-26 17:27 44.41403 8.84554 30 ft 13 kts 51°
2026-04-26 17:27 44.41415 8.84638 26 ft 8 kts 104°
2026-04-26 17:27 44.41397 8.84718 26 ft 6 kts 125°
2026-04-26 17:28 44.41375 8.84725 26 ft 3 kts 172°
2026-04-26 17:28 44.41347 8.84721 26 ft 4 kts 195°
2026-04-26 17:28 44.41325 8.84713 26 ft 0 kts 194°